EN

Hourly Weather Amaliada

Today, 17 January, Sunday

Time Temperature Precipitation Wind Pressure Humidity
00:00 +2°C° 0.1 mm 5 mps 754 mmHg 90%
01:00 +2°C° 0 mm 5 mps 754 mmHg 89%
02:00 +2°C° 0 mm 5 mps 755 mmHg 87%
03:00 +1°C° 0 mm 5 mps 755 mmHg 85%
04:00 +1°C° 0 mm 5 mps 755 mmHg 82%
05:00 +1°C° 0 mm 4 mps 755 mmHg 80%
06:00 +1°C° 0 mm 4 mps 756 mmHg 78%
07:00 0°C° 0 mm 4 mps 756 mmHg 76%
08:00 +3°C° 0 mm 4 mps 756 mmHg 69%
09:00 +4°C° 0 mm 4 mps 757 mmHg 62%
10:00 +5°C° 0 mm 4 mps 757 mmHg 55%
11:00 +6°C° 0 mm 4 mps 757 mmHg 55%
12:00 +6°C° 0 mm 4 mps 757 mmHg 54%
13:00 +6°C° 0 mm 4 mps 757 mmHg 53%
14:00 +6°C° 0 mm 4 mps 757 mmHg 58%
15:00 +6°C° 0 mm 4 mps 757 mmHg 62%
16:00 +5°C° 0 mm 4 mps 757 mmHg 67%
17:00 +4°C° 0 mm 3 mps 757 mmHg 68%
18:00 +4°C° 0 mm 3 mps 757 mmHg 70%
19:00 +4°C° 0 mm 2 mps 757 mmHg 71%
20:00 +4°C° 0 mm 2 mps 757 mmHg 71%
21:00 +4°C° 0 mm 2 mps 757 mmHg 71%
22:00 +4°C° 0 mm 2 mps 757 mmHg 71%
23:00 +4°C° 0.4 mm 2 mps 756 mmHg 75%

Tomorrow, 18 January, Monday

Time Temperature Precipitation Wind Pressure Humidity
00:00 +3°C° 0.4 mm 3 mps 755 mmHg 80%
01:00 +3°C° 0.4 mm 4 mps 755 mmHg 84%
02:00 +3°C° 0.6 mm 4 mps 755 mmHg 86%
03:00 +3°C° 0.6 mm 4 mps 755 mmHg 88%
04:00 +2°C° 0.6 mm 5 mps 755 mmHg 90%
05:00 +2°C° 0 mm 5 mps 755 mmHg 88%
06:00 +2°C° 0 mm 5 mps 755 mmHg 85%
07:00 +2°C° 0 mm 5 mps 756 mmHg 83%
08:00 +4°C° 0 mm 4 mps 757 mmHg 77%
09:00 +5°C° 0 mm 4 mps 757 mmHg 72%
10:00 +7°C° 0 mm 4 mps 758 mmHg 66%
11:00 +7°C° 0 mm 4 mps 758 mmHg 64%
12:00 +8°C° 0 mm 4 mps 758 mmHg 61%
13:00 +9°C° 0 mm 3 mps 758 mmHg 59%
14:00 +8°C° 0 mm 3 mps 759 mmHg 64%
15:00 +8°C° 0 mm 3 mps 759 mmHg 69%
16:00 +7°C° 0 mm 3 mps 759 mmHg 75%
17:00 +5°C° 0 mm 3 mps 760 mmHg 76%
18:00 +4°C° 0 mm 3 mps 760 mmHg 77%
19:00 +3°C° 0 mm 3 mps 761 mmHg 78%
20:00 +3°C° 0 mm 3 mps 761 mmHg 78%
21:00 +3°C° 0 mm 3 mps 761 mmHg 78%
22:00 +2°C° 0 mm 3 mps 762 mmHg 78%
23:00 +3°C° 0 mm 2 mps 762 mmHg 78%

Day after tomorrow, 19 January, Tuesday

Time Temperature Precipitation Wind Pressure Humidity
00:00 +3°C° 0 mm 2 mps 762 mmHg 79%
01:00 +2°C° 0 mm 2 mps 762 mmHg 80%
02:00 +2°C° 0 mm 2 mps 762 mmHg 80%
03:00 +2°C° 0 mm 2 mps 762 mmHg 80%
04:00 +2°C° 0 mm 2 mps 762 mmHg 80%
05:00 +2°C° 0 mm 2 mps 762 mmHg 79%
06:00 +1°C° 0 mm 3 mps 763 mmHg 79%
07:00 +1°C° 0 mm 3 mps 763 mmHg 78%
08:00 +3°C° 0 mm 3 mps 763 mmHg 70%
09:00 +5°C° 0 mm 2 mps 763 mmHg 61%
10:00 +7°C° 0 mm 2 mps 764 mmHg 53%
11:00 +8°C° 0 mm 3 mps 763 mmHg 52%
12:00 +8°C° 0 mm 3 mps 763 mmHg 51%
13:00 +8°C° 0 mm 4 mps 763 mmHg 50%
14:00 +7°C° 0 mm 4 mps 763 mmHg 54%
15:00 +7°C° 0 mm 3 mps 763 mmHg 58%
16:00 +5°C° 0 mm 3 mps 763 mmHg 62%
17:00 +4°C° 0 mm 3 mps 764 mmHg 62%
18:00 +3°C° 0 mm 3 mps 764 mmHg 62%
19:00 +2°C° 0 mm 3 mps 765 mmHg 62%
20:00 +3°C° 0 mm 2 mps 765 mmHg 60%
21:00 +3°C° 0 mm 2 mps 765 mmHg 59%
22:00 +3°C° 0 mm 2 mps 765 mmHg 57%
23:00 +3°C° 0 mm 2 mps 766 mmHg 57%

20 January, Wednesday

Time Temperature Precipitation Wind Pressure Humidity
00:00 +3°C° 0 mm 2 mps 766 mmHg 56%
01:00 +3°C° 0 mm 2 mps 766 mmHg 56%
02:00 +3°C° 0 mm 2 mps 766 mmHg 57%
03:00 +3°C° 0 mm 2 mps 765 mmHg 58%
04:00 +4°C° 0 mm 2 mps 765 mmHg 59%
05:00 +4°C° 0 mm 2 mps 766 mmHg 61%
06:00 +4°C° 0 mm 2 mps 766 mmHg 63%
07:00 +4°C° 0 mm 2 mps 766 mmHg 65%
08:00 +6°C° 0 mm 2 mps 766 mmHg 63%
09:00 +8°C° 0 mm 2 mps 766 mmHg 60%
10:00 +12°C° 0 mm 1 mps 766 mmHg 58%
11:00 +12°C° 0 mm 1 mps 766 mmHg 58%
12:00 +13°C° 0 mm 1 mps 765 mmHg 57%
13:00 +13°C° 0 mm 1 mps 765 mmHg 57%
14:00 +12°C° 0 mm 2 mps 765 mmHg 63%
15:00 +12°C° 0 mm 2 mps 765 mmHg 68%
16:00 +10°C° 0 mm 2 mps 765 mmHg 73%
17:00 +9°C° 0 mm 2 mps 765 mmHg 73%
18:00 +9°C° 0 mm 2 mps 765 mmHg 74%
19:00 +9°C° 0 mm 3 mps 765 mmHg 74%
20:00 +9°C° 0.1 mm 3 mps 765 mmHg 74%
21:00 +8°C° 0.1 mm 3 mps 765 mmHg 75%
22:00 +8°C° 0.1 mm 3 mps 765 mmHg 76%
23:00 +8°C° 0.1 mm 3 mps 765 mmHg 78%

21 January, Thursday

Time Temperature Precipitation Wind Pressure Humidity
00:00 +8°C° 0.1 mm 3 mps 765 mmHg 81%
01:00 +8°C° 0.1 mm 3 mps 764 mmHg 83%
02:00 +7°C° 0.1 mm 4 mps 764 mmHg 84%
03:00 +8°C° 0.1 mm 4 mps 764 mmHg 85%
04:00 +8°C° 0.1 mm 4 mps 763 mmHg 86%
05:00 +8°C° 0.1 mm 4 mps 764 mmHg 87%
06:00 +8°C° 0.1 mm 4 mps 764 mmHg 88%
07:00 +8°C° 0.1 mm 4 mps 764 mmHg 89%
08:00 +10°C° 0.2 mm 4 mps 764 mmHg 85%
09:00 +12°C° 0.2 mm 4 mps 764 mmHg 82%
10:00 +13°C° 0.2 mm 4 mps 764 mmHg 78%
11:00 +13°C° 0.3 mm 4 mps 764 mmHg 79%
12:00 +14°C° 0.3 mm 5 mps 764 mmHg 81%
13:00 +14°C° 0.3 mm 6 mps 764 mmHg 82%
14:00 +13°C° 0.2 mm 6 mps 764 mmHg 83%
15:00 +13°C° 0.2 mm 5 mps 763 mmHg 84%
16:00 +13°C° 0.2 mm 5 mps 763 mmHg 85%
17:00 +12°C° 0.1 mm 5 mps 763 mmHg 87%
18:00 +10°C° 0.1 mm 5 mps 764 mmHg 88%
19:00 +11°C° 0.1 mm 4 mps 764 mmHg 90%
20:00 +11°C° 0.1 mm 4 mps 764 mmHg 90%
21:00 +11°C° 0.1 mm 4 mps 764 mmHg 90%
22:00 +11°C° 0.1 mm 4 mps 764 mmHg 89%
23:00 +11°C° 0.1 mm 4 mps 763 mmHg 90%

22 January, Friday

Time Temperature Precipitation Wind Pressure Humidity
00:00 +11°C° 0.1 mm 4 mps 763 mmHg 90%
01:00 +10°C° 0.1 mm 5 mps 763 mmHg 91%
02:00 +10°C° 0.2 mm 5 mps 763 mmHg 90%
03:00 +11°C° 0.2 mm 4 mps 762 mmHg 90%
04:00 +11°C° 0.2 mm 4 mps 762 mmHg 89%
05:00 +11°C° 0.3 mm 4 mps 762 mmHg 90%
06:00 +10°C° 0.3 mm 4 mps 762 mmHg 90%
07:00 +10°C° 0.3 mm 4 mps 762 mmHg 91%
08:00 +10°C° 0.4 mm 5 mps 762 mmHg 89%
09:00 +12°C° 0.4 mm 5 mps 762 mmHg 87%
10:00 +13°C° 0.4 mm 5 mps 762 mmHg 85%
11:00 +13°C° 0.4 mm 5 mps 762 mmHg 83%
12:00 +14°C° 0.4 mm 6 mps 761 mmHg 82%
13:00 +14°C° 0.4 mm 6 mps 761 mmHg 81%
14:00 +14°C° 0.3 mm 6 mps 761 mmHg 83%
15:00 +13°C° 0.3 mm 6 mps 760 mmHg 85%
16:00 +13°C° 0.3 mm 6 mps 760 mmHg 87%
17:00 +11°C° 0.2 mm 6 mps 760 mmHg 88%
18:00 +10°C° 0.2 mm 6 mps 760 mmHg 90%
19:00 +10°C° 0.2 mm 5 mps 760 mmHg 91%
20:00 +10°C° 0.2 mm 6 mps 760 mmHg 91%
21:00 +10°C° 0.2 mm 6 mps 760 mmHg 90%
22:00 +10°C° 0.2 mm 6 mps 759 mmHg 89%
23:00 +10°C° 0.2 mm 6 mps 759 mmHg 89%
Show more